Location: Unspecified
(0.0000°N, 0.0000°E)
Time: 00:33:05
(UTC+00:00)

A-11 Canister half - All Passes

Search period start: 23 August 2017 00:00
Search period end: 02 September 2017 00:00
Orbit: 1516 x 1684 km, 47.2° (Epoch: 22 August)

Date Brightness Start Highest point End Pass type
(mag) Time Alt. Az. Time Alt. Az. Time Alt. Az.
23 Aug - 07:12:48 10° N 07:19:55 21° NE 07:26:59 10° E daylight
23 Aug - 09:14:52 10° NW 09:25:03 83° SW 09:35:09 10° SE daylight
23 Aug - 11:24:36 10° W 11:30:19 16° SW 11:35:59 10° S daylight
23 Aug - 20:02:27 10° SSW 20:11:06 43° SE 20:19:43 10° ENE visible
23 Aug - 22:07:23 10° WSW 22:15:45 38° NW 22:24:15 10° NNE visible
24 Aug - 06:50:18 10° N 06:56:55 19° NE 07:03:30 10° E daylight
24 Aug - 08:51:55 10° NW 09:02:07 89° SW 09:12:15 10° SE daylight
24 Aug - 11:00:59 10° W 11:07:18 18° SW 11:13:36 10° S daylight
24 Aug - 19:39:43 10° SSW 19:48:12 40° SE 19:56:38 10° ENE visible
24 Aug - 21:44:18 10° WSW 21:52:51 42° NW 22:01:30 10° NNE visible
25 Aug - 06:27:51 10° N 06:33:55 17° NE 06:39:58 10° E daylight
25 Aug - 08:29:00 10° NW 08:39:11 85° NE 08:49:19 10° SE daylight
25 Aug - 10:37:28 10° W 10:44:19 20° SW 10:51:09 10° S daylight
25 Aug - 19:17:00 10° SSW 19:25:18 36° SE 19:33:31 10° ENE visible
25 Aug - 21:21:15 10° WSW 21:29:57 46° NW 21:38:45 10° NNE visible
26 Aug - 06:05:31 10° NNE 06:10:54 15° NE 06:16:17 10° ENE daylight
26 Aug - 08:06:06 10° NW 08:16:15 79° NE 08:26:23 10° SE daylight
26 Aug - 10:14:01 10° W 10:21:20 22° SW 10:28:38 10° S daylight
26 Aug - 18:54:19 10° SSW 19:02:23 33° SE 19:10:23 10° ENE visible
26 Aug - 20:58:13 10° WSW 21:07:03 50° NW 21:15:59 10° NNE visible
27 Aug - 05:43:17 10° NNE 05:47:53 14° NE 05:52:29 10° ENE daylight
27 Aug - 07:43:12 10° NNW 07:53:19 73° NE 08:03:25 10° SE daylight
27 Aug - 09:50:38 10° W 09:58:21 25° SW 10:06:03 10° S daylight
27 Aug - 18:31:39 10° S 18:39:29 30° SE 18:47:12 10° ENE visible
27 Aug - 20:35:13 10° SW 20:44:10 55° NW 20:53:12 10° NNE visible
28 Aug - 05:21:16 10° NNE 05:24:51 12° NE 05:28:25 10° ENE visible
28 Aug - 07:20:20 10° NNW 07:30:23 68° NE 07:40:26 10° SE daylight
28 Aug - 09:27:18 10° WNW 09:35:23 27° SW 09:43:27 10° S daylight
28 Aug - 18:09:01 10° S 18:16:33 27° SE 18:24:01 10° ENE visible
28 Aug - 20:12:13 10° SW 20:21:17 60° NW 20:30:23 10° NNE visible
29 Aug - 04:59:49 10° NNE 05:01:49 11° NE 05:03:49 10° NE visible
29 Aug - 06:57:29 10° NNW 07:07:27 63° NE 07:17:26 10° SE daylight
29 Aug - 09:04:01 10° WNW 09:12:25 30° SW 09:20:48 10° S daylight
29 Aug - 17:46:24 10° S 17:53:38 25° SE 18:00:45 10° E daylight
29 Aug - 19:49:14 10° SW 19:58:24 66° NW 20:07:34 10° NNE visible
29 Aug - 22:02:34 10° NW 22:03:46 10° NW 22:04:57 10° NW visible
30 Aug - 06:34:40 10° NNW 06:44:31 58° NE 06:54:24 10° SE daylight
30 Aug - 08:40:46 10° WNW 08:49:27 32° SW 08:58:08 10° S daylight
30 Aug - 17:23:49 10° S 17:30:42 23° SE 17:37:29 10° E daylight
30 Aug - 19:26:17 10° SW 19:35:32 71° NW 19:44:44 10° NNE visible
30 Aug - 21:37:47 10° WNW 21:40:46 12° NW 21:43:46 10° NNW visible
31 Aug - 06:11:50 10° NNW 06:21:34 53° NE 06:31:22 10° SE daylight
31 Aug - 08:17:34 10° WNW 08:26:29 35° SW 08:35:26 10° SSE daylight
31 Aug - 17:01:17 10° S 17:07:46 21° SE 17:14:08 10° E daylight
31 Aug - 19:03:21 10° SW 19:12:39 78° NW 19:21:53 10° NE visible
31 Aug - 21:13:47 10° WNW 21:17:47 13° NW 21:21:49 10° NNW visible
01 Sep - 05:49:03 10° NNW 05:58:38 49° NE 06:08:16 10° ESE daylight
01 Sep - 07:54:24 10° WNW 08:03:32 38° SW 08:12:42 10° SSE daylight
01 Sep - 16:38:47 10° S 16:44:48 19° SE 16:50:44 10° E daylight
01 Sep - 18:40:26 10° SW 18:49:46 84° NW 18:59:01 10° NE visible
01 Sep - 20:50:02 10° WNW 20:54:49 15° NW 20:59:37 10° NNW visible
